Torna al catalogo

CZ-6A DEB

AttivoPO
NORAD 61144·DEBRIS·🇨🇳 China

Lanciato Aug 6, 2024 da Taiyuan Satellite Launch Center

Loading…

Prossimi Passaggi (prossime 24 ore)

TLE

AggiornatoSource: Space-Track

Epoca: Sep 14, 2026, 10:11 UTC

1 61144U 24140QN  26257.42443934  .00000428  00000-0  11011-3 0  9993
2 61144  88.9474 256.2316 0089129   5.3936 354.8206 14.45919837108826

Traccia CZ-6A DEB in tempo reale con AllMySat

Download on the App Store